This is the latest recevied weather packets stored in our database for station/object DL1NER. If no packets are shown the sender has not sent any weather packets the latest 10 day(s).
| Time | Temp. | Humidity | Pressure | Rain* | Wind** | Luminosity | Snow |
|---|---|---|---|---|---|---|---|
| 1777484411 | 14.44° C | 32% | 1024 hPa | 0 mm | - | 0 W/m² | - |
| 1777483810 | 15° C | 31% | 1023.9 hPa | 0 mm | - | 0 W/m² | - |
| 1777483210 | 15.56° C | 31% | 1023.7 hPa | 0 mm | - | 0 W/m² | - |
| 1777482611 | 15.56° C | 31% | 1023.7 hPa | 0 mm | - | 0 W/m² | - |
| 1777481411 | 16.67° C | 31% | 1023.6 hPa | 0 mm | - | 0 W/m² | - |
| 1777480811 | 16.67° C | 31% | 1023.6 hPa | 0 mm | - | 0 W/m² | - |
| 1777480210 | 17.22° C | 30% | 1023.5 hPa | 0 mm | - | 0 W/m² | - |
| 1777479611 | 17.78° C | 26% | 1023.3 hPa | 0 mm | - | 0 W/m² | - |
| 1777479009 | 17.78° C | 26% | 1023.2 hPa | 0 mm | - | 0 W/m² | - |
| 1777478410 | 17.78° C | 26% | 1023.2 hPa | 0 mm | - | 0 W/m² | - |
| 1777477810 | 18.33° C | 25% | 1023.2 hPa | 0 mm | - | 0 W/m² | - |
| 1777477211 | 18.33° C | 25% | 1023.2 hPa | 0 mm | - | 0 W/m² | - |
| 1777476610 | 18.33° C | 22% | 1023.2 hPa | 0 mm | - | 0 W/m² | - |
| 1777476011 | 18.33° C | 23% | 1023.3 hPa | 0 mm | - | 0 W/m² | - |
| 1777475409 | 18.33° C | 22% | 1023.1 hPa | 0 mm | - | 0 W/m² | - |
| 1777474817 | 18.33° C | 22% | 1023.1 hPa | 0 mm | - | 0 W/m² | - |
| 1777474211 | 18.89° C | 23% | 1023.3 hPa | 0 mm | - | 0 W/m² | - |
| 1777473610 | 18.33° C | 26% | 1023.3 hPa | 0 mm | - | 0 W/m² | - |
| 1777473009 | 18.33° C | 25% | 1023.3 hPa | 0 mm | - | 0 W/m² | - |
| 1777472409 | 18.33° C | 25% | 1023.4 hPa | 0 mm | - | 0 W/m² | - |
| 1777471814 | 18.33° C | 25% | 1023.4 hPa | 0 mm | - | 0 W/m² | - |
| 1777471214 | 18.33° C | 24% | 1023.4 hPa | 0 mm | - | 0 W/m² | - |
| 1777470614 | 18.33° C | 24% | 1023.6 hPa | 0 mm | - | 0 W/m² | - |
| 1777470014 | 18.33° C | 25% | 1023.3 hPa | 0 mm | - | 0 W/m² | - |
| 1777469414 | 18.89° C | 25% | 1023.5 hPa | 0 mm | - | 0 W/m² | - |
* Rain latest hour (hover to see other rain measurements)
** Current wind speed in m/s (hover to see current wind gust speed)